Regional Weather Roundup
Issued by NWS

Home | Current Version | Previous Version | Graphics & Text | Print | Product List | Glossary On
Versions: 1 2 3 4 5 6 7 8 9 10 11 12 13 14 15 16 17 18 19 20 21 22 23 24 25 26 27 28 29 30 31 32 33 34 35 36 37 38 39 40 41 42 43 44 45 46 47 48 49 50
000
ASUS43 KLOT 290404
RWRIL

ILLINOIS REGIONAL WEATHER ROUNDUP
NATIONAL WEATHER SERVICE CHICAGO/ROMEOVILLE IL
1100 PM CDT THU JUL 28 2016

NOTE: "FAIR" INDICATES FEW OR NO CLOUDS BELOW 12,000 FEET WITH NO
SIGNIFICANT WEATHER AND/OR OBSTRUCTIONS TO VISIBILITY.

* THESE STATIONS ARE NOT UNDER NWS QUALITY CONTROL. THEY ALSO MAY NOT
  REPORT WEATHER SUCH AS PRECIPITATION OR FOG.

ILZ001-002-007-009-015-016-024-290500-
NORTHWEST ILLINOIS

CITY           SKY/WX    TMP DP  RH WIND       PRES   REMARKS
MOLINE         CLEAR     72  66  81 W6        29.91S
STERLING*      FOG       69  68  96 E6        29.92S VSB 1/2
SAVANNA*       MOCLDY    72  69  91 NE8       29.92S
$$

ILZ003-004-008-010-011-017-018-290500-
NORTH CENTRAL ILLINOIS

CITY           SKY/WX    TMP DP  RH WIND       PRES   REMARKS
ROCKFORD       MOCLDY    70  65  84 NE8       29.95R
FREEPORT*      CLOUDY    68  66  92 NE7       29.97R
ROCHELLE*      CLEAR     67  66  96 E6        29.93F
$$

ILZ005-006-012>014-019>023-290500-
NORTHEAST ILLINOIS

CITY           SKY/WX    TMP DP  RH WIND       PRES   REMARKS
CHICAGO-OHARE  PTCLDY    71  69  93 N6        29.92R
CHICAGO-MIDWAY PTCLDY    75  70  84 N5        29.91S
AURORA         PTCLDY    70  67  90 N3        29.93S FOG
LANSING*       CLEAR     72  70  92 CALM      29.91F FOG
WAUKEGAN       CLEAR     69  67  93 N6        29.93S
DUPAGE AIRPORT PTCLDY    70  66  87 N5        29.93R
KANKAKEE*      CLEAR     72  69  92 CALM      29.92S
WHEELING       CLEAR     70  68  93 CALM      29.94S
MORRIS*        PTCLDY    71  69  95 CALM      29.92R FOG
NORTHERLY ISL    N/A     73  70  90 MISG        N/A
$$

LMZ740>746-290500-
SOUTHERN LAKE MICHIGAN

STATION/POSITION SKY/WX   TEMP    WIND        PRES    VSBY  WAVE
                          AIR SEA DIR/SP/G                  HT/PER
                          (F)     (DEG/KT/KT) (MB)    (MI)  (FT/S)
SOUTHERN BUOY              74 75  100/ 10/ 12 1012.3          2/ 6
WILMETTE HARBOR            75 74   70/  4/  6   N/A           3/ 5
HARRISON CRIB              76      50/  6/  6   N/A
BURNHAM HARBOR             73     340/  2/  4   N/A
CALUMET HARBOR                     30/  4/  5   N/A
BURNS HARBOR               75     100/  6/ 13 1013.5R
MICHIGAN CITY              73      60/  5/  5   N/A
MICHIGAN CITY 6N           75 77   90/  8/ 10   N/A           1/ 3
ST. JOSEPH                 74 77   80/  6/  8 1012.8R         2
$$

ILZ025>027-034>036-040-047-049-050-058-095>099-290500-
WEST-CENTRAL ILLINOIS

CITY           SKY/WX    TMP DP  RH WIND       PRES   REMARKS
QUINCY         CLEAR     70  68  93 NW3       29.94S
GALESBURG*     CLEAR     69  66  89 W3        29.93R
MACOMB*        CLEAR     67  66  96 W5        29.95S
JACKSONVILLE*  CLEAR     72  69  90 CALM      29.92F
PITTSFIELD*    CLEAR     73  69  88 CALM      29.95S
$$

ILZ028>032-037-038-041>044-048-051>054-059>061-290500-
CENTRAL ILLINOIS

CITY           SKY/WX    TMP DP  RH WIND       PRES   REMARKS
PONTIAC        CLEAR     71  71 100 N3        29.94R
BLOOMINGTON    MOCLDY    73  71  93 W8        29.94R
DECATUR        CLEAR     73  69  87 W5        29.92R
PEORIA         MOCLDY    73  69  87 S3        29.92S
LACON*         MOCLDY    71  69  93 CALM      29.91F
LINCOLN*       MOCLDY    72  71  99 CALM      29.93R
SPRINGFIELD    CLEAR     75  71  87 NW3       29.93R
TAYLORVILLE    PTCLDY    73  73  99 MISG      29.92S FOG
$$

ILZ033-039-045-046-055>057-062-063-290500-
EAST-CENTRAL ILLINOIS

CITY           SKY/WX    TMP DP  RH WIND       PRES   REMARKS
CHAMPAIGN      CLEAR     70  68  93 CALM      29.91S
MATTOON        CLEAR     69  66  90 CALM      29.90F
PARIS*         CLEAR     71  71 100 CALM      29.92R FOG
$$

ILZ079-100>102-290500-
SOUTHWEST ILLINOIS

CITY           SKY/WX    TMP DP  RH WIND       PRES   REMARKS
ALTON          PTCLDY    74  73  95 NW3       29.93R
CAHOKIA*       PTCLDY    78  73  84 CALM      29.92R HX  81
SPARTA*        MOCLDY    77  73  87 SE5       29.93S
$$

ILZ064>066-069>071-074>076-080>082-084>086-088>090-092>094-290500-
SOUTH-CENTRAL ILLINOIS

CITY           SKY/WX    TMP DP  RH WIND       PRES   REMARKS
CARBONDALE     CLOUDY    75  69  81 S5        29.93R
EFFINGHAM*     PTCLDY    70  70 100 CALM      29.93R
MARION         CLOUDY    73  72  94 SW3       29.95R
MT. VERNON     MOCLDY    72  66  83 MISG      29.92R
SALEM*         CLOUDY    72  70  94 CALM      29.92R
METROPOLIS*    CLOUDY    77  72  82 CALM      29.92F
$$

ILZ067-068-072-073-078-083-087-091-290500-
SOUTHEAST ILLINOIS

CITY           SKY/WX    TMP DP  RH WIND       PRES   REMARKS
LAWRENCEVILLE  PTCLDY    71  70  96 SW3       29.92R
FLORA*         PTCLDY    74  73  97 CALM      29.92S FOG
FAIRFIELD*     PTCLDY    71  71 100 CALM      29.90S
HARRISBURG*    PTCLDY    73  73  99 CALM      29.92S
ROBINSON*      MOCLDY    72  70  94 CALM      29.91S
CARMI*         MOCLDY    73  72  96 SW5       29.91S
$$

ABBREVIATIONS USED IN REMARKS
   TC - TEMPERATURE IN CELSIUS
  WCI - WIND CHILL INDEX
   HX - HEAT INDEX
  VSB - VISIBILITY
$$




USA.gov is the U.S. government's official web portal to all federal, state and local government web resources and services.